TimeMDT,TemperatureF,Dew PointF,Humidity,Sea Level PressureIn,VisibilityMPH,Wind Direction,Wind SpeedMPH,Gust SpeedMPH,PrecipitationIn,Events,Conditions,WindDirDegrees,DateUTC
12:53 AM,72.0,45.0,38,29.87,10.0,Calm,Calm,-,0.00,,Clear,0,2013-08-26 06:53:00
1:53 AM,68.0,48.0,49,29.90,10.0,Calm,Calm,-,N/A,,Clear,0,2013-08-26 07:53:00
2:53 AM,66.0,50.0,56,29.89,10.0,WSW,4.6,-,N/A,,Clear,240,2013-08-26 08:53:00
3:53 AM,64.9,48.0,54,29.90,10.0,WSW,3.5,-,N/A,,Clear,240,2013-08-26 09:53:00
4:53 AM,64.9,46.9,52,29.91,10.0,West,3.5,-,N/A,,Clear,260,2013-08-26 10:53:00
5:53 AM,64.0,46.0,52,29.93,10.0,WSW,4.6,-,N/A,,Clear,250,2013-08-26 11:53:00
6:53 AM,60.1,48.0,64,29.95,10.0,SW,5.8,-,N/A,,Clear,230,2013-08-26 12:53:00
7:53 AM,62.1,45.0,53,29.97,10.0,Calm,Calm,-,N/A,,Clear,0,2013-08-26 13:53:00
8:53 AM,63.0,46.0,54,29.98,10.0,Calm,Calm,-,N/A,,Clear,0,2013-08-26 14:53:00
9:53 AM,68.0,44.1,42,29.98,10.0,Calm,Calm,-,N/A,,Clear,0,2013-08-26 15:53:00
10:53 AM,73.0,42.1,33,29.98,10.0,SW,3.5,-,N/A,,Clear,230,2013-08-26 16:53:00
11:53 AM,75.9,45.0,33,29.97,10.0,Calm,Calm,-,N/A,,Clear,0,2013-08-26 17:53:00
12:53 PM,81.0,46.0,29,29.95,10.0,Variable,3.5,-,N/A,,Clear,0,2013-08-26 18:53:00
1:53 PM,82.9,48.0,29,29.92,10.0,SE,6.9,-,N/A,,Clear,130,2013-08-26 19:53:00
2:53 PM,87.1,46.0,24,29.89,10.0,East,9.2,-,N/A,,Clear,90,2013-08-26 20:53:00
3:53 PM,87.1,44.1,22,29.87,10.0,ESE,8.1,18.4,N/A,,Clear,110,2013-08-26 21:53:00
4:53 PM,88.0,42.1,20,29.85,10.0,East,3.5,-,N/A,,Clear,90,2013-08-26 22:53:00
5:53 PM,87.1,42.1,21,29.84,10.0,East,8.1,-,N/A,,Clear,90,2013-08-26 23:53:00
6:53 PM,87.1,44.1,22,29.83,10.0,East,6.9,-,N/A,,Clear,90,2013-08-27 00:53:00
7:53 PM,84.0,42.1,23,29.82,10.0,ENE,3.5,-,N/A,,Clear,70,2013-08-27 01:53:00
8:53 PM,73.9,48.9,41,29.83,10.0,Calm,Calm,-,N/A,,Clear,0,2013-08-27 02:53:00
9:53 PM,70.0,53.1,55,29.83,10.0,Calm,Calm,-,N/A,,Clear,0,2013-08-27 03:53:00
10:53 PM,64.9,52.0,63,29.85,10.0,Calm,Calm,-,N/A,,Clear,0,2013-08-27 04:53:00
11:53 PM,64.9,50.0,58,29.85,10.0,Calm,Calm,-,N/A,,Clear,0,2013-08-27 05:53:00